When you browse on this site, cookies collect data to enhance your experience and personalize the content and advertising you see.
Visit our Privacy Policy to learn more. By continuing to use the site, you agree to this use of cookies and data.
  • In Hungary
  • List of Countries
  • For 7 days
  • Water Temperature
  • Satellite Maps
  • Weather Map
  • News
  • Weather Widgets
  • user-avatar
    Login

    Hourly Weather Sloboda-Banyliv

    Today, 14 December, Friday

    Time Temperature Precipitation Wind Pressure Humidity
    00:00 -3°C° 0 mm 4 mps 742 mmHg 100%
    01:00 -3°C° 0 mm 4 mps 743 mmHg 99%
    02:00 -3°C° 0 mm 2 mps 743 mmHg 92%
    03:00 -2°C° 0 mm 3 mps 743 mmHg 97%
    04:00 -2°C° 0.2 mm 3 mps 744 mmHg 100%
    05:00 -3°C° 0.1 mm 4 mps 744 mmHg 99%
    06:00 -3°C° 0 mm 4 mps 744 mmHg 97%
    07:00 -3°C° 0 mm 4 mps 744 mmHg 98%
    08:00 -2°C° 0 mm 3 mps 744 mmHg 99%
    09:00 -2°C° 0 mm 3 mps 744 mmHg 100%
    10:00 -2°C° 0 mm 3 mps 745 mmHg 99%
    11:00 -2°C° 0 mm 3 mps 745 mmHg 98%
    12:00 -2°C° 0 mm 3 mps 745 mmHg 98%
    13:00 -2°C° 0 mm 3 mps 745 mmHg 98%
    14:00 -2°C° 0 mm 2 mps 746 mmHg 98%
    15:00 -2°C° 0 mm 2 mps 746 mmHg 98%
    16:00 -2°C° 0 mm 2 mps 746 mmHg 99%
    17:00 -1°C° 0 mm 1 mps 746 mmHg 99%
    18:00 -2°C° 0 mm 0 mps 746 mmHg 99%
    19:00 -2°C° 0 mm 0 mps 746 mmHg 100%
    20:00 -2°C° 0.1 mm 0 mps 747 mmHg 100%
    21:00 -2°C° 0.1 mm 1 mps 747 mmHg 100%
    22:00 -5°C° 0.1 mm 2 mps 747 mmHg 99%
    23:00 -6°C° 0 mm 2 mps 747 mmHg 99%

    Tomorrow, 15 December, Saturday

    Time Temperature Precipitation Wind Pressure Humidity
    00:00 -7°C° 0 mm 2 mps 747 mmHg 99%
    01:00 -7°C° 0 mm 2 mps 747 mmHg 99%
    02:00 -7°C° 0 mm 1 mps 747 mmHg 99%
    03:00 -6°C° 0 mm 1 mps 747 mmHg 99%
    04:00 -6°C° 0.1 mm 1 mps 747 mmHg 100%
    05:00 -6°C° 0 mm 1 mps 747 mmHg 99%
    06:00 -6°C° 0 mm 1 mps 747 mmHg 99%
    07:00 -7°C° 0 mm 0 mps 748 mmHg 100%
    08:00 -7°C° 0 mm 0 mps 748 mmHg 100%
    09:00 -6°C° 0.1 mm 1 mps 748 mmHg 100%
    10:00 -6°C° 0 mm 1 mps 748 mmHg 99%
    11:00 -7°C° 0 mm 2 mps 748 mmHg 99%
    12:00 -8°C° 0 mm 3 mps 748 mmHg 99%
    13:00 -7°C° 0 mm 3 mps 748 mmHg 99%
    14:00 -7°C° 0.2 mm 3 mps 748 mmHg 99%
    15:00 -6°C° 0.3 mm 2 mps 747 mmHg 100%
    16:00 -4°C° 0.4 mm 1 mps 747 mmHg 100%
    17:00 -4°C° 0.6 mm 1 mps 747 mmHg 100%
    18:00 -6°C° 0.7 mm 2 mps 747 mmHg 100%
    19:00 -7°C° 0.3 mm 3 mps 747 mmHg 100%
    20:00 -8°C° 0.1 mm 4 mps 747 mmHg 100%
    21:00 -9°C° 0.2 mm 4 mps 747 mmHg 100%
    22:00 -9°C° 0.3 mm 4 mps 747 mmHg 100%
    23:00 -9°C° 0.3 mm 4 mps 747 mmHg 100%

    Day after tomorrow, 16 December, Sunday

    Time Temperature Precipitation Wind Pressure Humidity
    00:00 -9°C° 0.1 mm 4 mps 746 mmHg 100%
    01:00 -9°C° 0 mm 4 mps 746 mmHg 100%
    02:00 -9°C° 0 mm 4 mps 746 mmHg 99%
    03:00 -10°C° 0.1 mm 4 mps 746 mmHg 100%
    04:00 -11°C° 0.5 mm 5 mps 745 mmHg 100%
    05:00 -11°C° 0.8 mm 5 mps 745 mmHg 100%
    06:00 -11°C° 0.9 mm 5 mps 745 mmHg 100%
    07:00 -11°C° 0.8 mm 5 mps 745 mmHg 100%
    08:00 -11°C° 0.3 mm 6 mps 745 mmHg 99%
    09:00 -11°C° 0 mm 6 mps 745 mmHg 98%
    10:00 -10°C° 0 mm 6 mps 745 mmHg 98%
    11:00 -10°C° 0 mm 6 mps 745 mmHg 98%
    12:00 -9°C° 0 mm 7 mps 745 mmHg 98%
    13:00 -8°C° 0 mm 6 mps 744 mmHg 98%
    14:00 -8°C° 0 mm 6 mps 744 mmHg 98%
    15:00 -8°C° 0 mm 6 mps 744 mmHg 98%
    16:00 -8°C° 0.1 mm 6 mps 744 mmHg 98%
    17:00 -8°C° 0.1 mm 6 mps 744 mmHg 98%
    18:00 -7°C° 0 mm 5 mps 744 mmHg 98%
    19:00 -8°C° 0 mm 5 mps 744 mmHg 99%
    20:00 -8°C° 0 mm 5 mps 745 mmHg 100%
    21:00 -8°C° 0 mm 5 mps 745 mmHg 100%
    22:00 -8°C° 0 mm 4 mps 745 mmHg 100%
    23:00 -7°C° 0 mm 5 mps 745 mmHg 99%

    17 December, Monday

    Time Temperature Precipitation Wind Pressure Humidity
    00:00 -5°C° 0.3 mm 4 mps 746 mmHg 100%
    01:00 -5°C° 2.4 mm 4 mps 745 mmHg 100%
    02:00 -5°C° 0.1 mm 4 mps 745 mmHg 100%
    03:00 -5°C° 0 mm 4 mps 745 mmHg 100%
    04:00 -5°C° 0 mm 4 mps 745 mmHg 100%
    05:00 -5°C° 0 mm 3 mps 745 mmHg 100%
    06:00 -5°C° 0 mm 3 mps 745 mmHg 100%
    07:00 -5°C° 0.2 mm 3 mps 745 mmHg 100%
    08:00 -5°C° 0.4 mm 3 mps 745 mmHg 100%
    09:00 -5°C° 0.2 mm 3 mps 745 mmHg 100%
    10:00 -4°C° 0 mm 3 mps 746 mmHg 99%
    11:00 -4°C° 0 mm 3 mps 746 mmHg 99%
    12:00 -4°C° 0 mm 3 mps 746 mmHg 99%
    13:00 -5°C° 0 mm 3 mps 745 mmHg 99%
    14:00 -5°C° 0 mm 3 mps 745 mmHg 99%
    15:00 -5°C° 0 mm 3 mps 745 mmHg 99%
    16:00 -6°C° 0 mm 3 mps 745 mmHg 99%
    17:00 -6°C° 0 mm 3 mps 746 mmHg 100%
    18:00 -7°C° 0 mm 3 mps 746 mmHg 100%
    19:00 -7°C° 0 mm 3 mps 746 mmHg 100%
    20:00 -7°C° 0.1 mm 2 mps 746 mmHg 100%
    21:00 -7°C° 0.3 mm 2 mps 747 mmHg 100%
    22:00 -7°C° 0.3 mm 2 mps 747 mmHg 100%
    23:00 -7°C° 0.1 mm 2 mps 747 mmHg 100%

    18 December, Tuesday

    Time Temperature Precipitation Wind Pressure Humidity
    00:00 -7°C° 0.1 mm 2 mps 747 mmHg 100%
    01:00 -9°C° 0.5 mm 3 mps 747 mmHg 100%
    02:00 -8°C° 0.4 mm 2 mps 747 mmHg 100%

    19 December, Wednesday

    Time Temperature Precipitation Wind Pressure Humidity
    Show more